^^
Station Historical Data
Daily Summary for January 8, 2018 Units:  English    Metric   Both
« Previous Day
Next Day »
Daily Weekly Monthly Yearly Custom
  High: Low: Average:
Temperature: TemperatureF °F 59.0 °F 76.6 °F
Dew Point: DewpointF °F 26.1 °F 39.2 °F
Humidity: Humidity% 9% 31%
Wind Speed: WindSpeedMPHmph 0.0mph 1.8mph
Wind Gust: WindSpeedGustMPHmph - -
Wind- - SW
Pressure: PressureIn in 29.75 in -
Precipitation: 0.00 in    
Historical Graphs
 
 
Tabular Data for January 8, 2018
Time Temperature Dew Point Pressure Wind Wind Speed Wind Gust Humidity Rainfall Rate (Hourly) solar Conditions
TemperatureF °F DewpointF °F PressureIn in Calm     Humidity% HourlyPrecipIn in SolarRadiationWatts/m^2 W/m2 Conditions
00:04 67.6 °F 45.0 °F 30.16 in Calm     44% 0.00 in 0.0 W/m2
00:14 67.1 °F 44.4 °F 30.16 in Calm     44% 0.00 in 0.0 W/m2
00:20 66.7 °F 44.8 °F 30.16 in Calm     45% 0.00 in 0.0 W/m2
00:25 66.6 °F 45.1 °F 30.16 in Calm     46% 0.00 in 0.0 W/m2
00:30 66.2 °F 44.8 °F 30.16 in Calm     46% 0.00 in 0.0 W/m2
00:36 65.8 °F 45.7 °F 30.16 in Calm     48% 0.00 in 0.0 W/m2
00:43 65.5 °F 45.3 °F 30.16 in Calm     48% 0.00 in 0.0 W/m2
00:49 65.1 °F 45.0 °F 30.16 in Calm     48% 0.00 in 0.0 W/m2
00:54 64.9 °F 45.3 °F 30.16 in Calm     49% 0.00 in 0.0 W/m2
01:07 64.0 °F 45.0 °F 30.16 in Calm     50% 0.00 in 0.0 W/m2
01:16 63.9 °F 44.8 °F 30.16 in Calm     50% 0.00 in 0.0 W/m2
01:24 63.7 °F 45.1 °F 30.15 in Calm     51% 0.00 in 0.0 W/m2
01:26 63.7 °F 45.1 °F 30.15 in Calm     51% 0.00 in 0.0 W/m2
01:30 63.5 °F 44.6 °F 30.15 in Calm     50% 0.00 in 0.0 W/m2
01:36 63.3 °F 45.0 °F 30.15 in Calm     51% 0.00 in 0.0 W/m2
01:42 63.1 °F 44.8 °F 30.15 in Calm     51% 0.00 in 0.0 W/m2
01:48 63.1 °F 44.8 °F 30.15 in Calm     51% 0.00 in 0.0 W/m2
01:52 63.0 °F 44.6 °F 30.15 in Calm     51% 0.00 in 0.0 W/m2
01:54 63.0 °F 44.6 °F 30.15 in Calm     51% 0.00 in 0.0 W/m2
01:59 63.0 °F 45.1 °F 30.15 in Calm     52% 0.00 in 0.0 W/m2
02:04 62.8 °F 44.4 °F 30.15 in Calm     51% 0.00 in 0.0 W/m2
02:09 62.6 °F 44.8 °F 30.15 in Calm     52% 0.00 in 0.0 W/m2
02:17 62.4 °F 44.6 °F 30.15 in Calm     52% 0.00 in 0.0 W/m2
02:23 62.4 °F 44.6 °F 30.15 in Calm     52% 0.00 in 0.0 W/m2
02:28 62.2 °F 44.4 °F 30.15 in Calm     52% 0.00 in 0.0 W/m2
02:34 62.2 °F 44.4 °F 30.15 in Calm     52% 0.00 in 0.0 W/m2
02:38 62.1 °F 44.8 °F 30.15 in Calm     53% 0.00 in 0.0 W/m2
02:39 62.1 °F 44.8 °F 30.15 in Calm     53% 0.00 in 0.0 W/m2
02:44 62.1 °F 44.8 °F 30.15 in Calm     53% 0.00 in 0.0 W/m2
02:49 61.9 °F 45.1 °F 30.14 in Calm     54% 0.00 in 0.0 W/m2
02:57 61.5 °F 44.8 °F 30.15 in Calm     54% 0.00 in 0.0 W/m2
03:02 61.5 °F 44.2 °F 30.14 in Calm     53% 0.00 in 0.0 W/m2
03:08 61.5 °F 44.8 °F 30.15 in Calm     54% 0.00 in 0.0 W/m2
03:13 61.3 °F 44.6 °F 30.14 in Calm     54% 0.00 in 0.0 W/m2
03:19 61.3 °F 44.1 °F 30.14 in Calm   1.0 mph 53% 0.00 in 0.0 W/m2
03:24 61.3 °F 44.1 °F 30.14 in Calm     53% 0.00 in 0.0 W/m2
03:30 61.3 °F 43.5 °F 30.14 in Calm   1.0 mph 52% 0.00 in 0.0 W/m2
03:35 61.3 °F 44.1 °F 30.14 in ESE 0.9 mph 1.0 mph 53% 0.00 in 0.0 W/m2
03:40 61.3 °F 44.1 °F 30.14 in Calm   1.0 mph 53% 0.00 in 0.0 W/m2
03:44 61.3 °F 44.6 °F 30.14 in SSE 0.9 mph 1.0 mph 54% 0.00 in 0.0 W/m2
03:45 61.3 °F 44.6 °F 30.14 in Calm   1.0 mph 54% 0.00 in 0.0 W/m2
03:51 61.2 °F 44.4 °F 30.14 in Calm   2.0 mph 54% 0.00 in 0.0 W/m2
03:54 61.2 °F 44.4 °F 30.14 in Calm     54% 0.00 in 0.0 W/m2
03:57 61.2 °F 44.4 °F 30.14 in Calm     54% 0.00 in 0.0 W/m2
04:00 61.0 °F 44.8 °F 30.14 in Calm   1.0 mph 55% 0.00 in 0.0 W/m2
04:05 60.8 °F 44.6 °F 30.14 in Calm   1.0 mph 55% 0.00 in 0.0 W/m2
04:10 60.6 °F 44.4 °F 30.14 in Calm     55% 0.00 in 0.0 W/m2
04:12 60.6 °F 44.8 °F 30.15 in Calm   1.0 mph 56% 0.00 in 0.0 W/m2
04:17 60.4 °F 43.7 °F 30.15 in Calm   1.0 mph 54% 0.00 in 0.0 W/m2
04:20 60.4 °F 43.7 °F 30.15 in Calm   1.0 mph 54% 0.00 in 0.0 W/m2
04:23 60.4 °F 43.7 °F 30.15 in Calm   2.0 mph 54% 0.00 in 0.0 W/m2
04:25 60.4 °F 43.7 °F 30.15 in Calm   1.0 mph 54% 0.00 in 0.0 W/m2
04:28 60.4 °F 43.7 °F 30.15 in Calm   1.0 mph 54% 0.00 in 0.0 W/m2
04:34 60.4 °F 43.7 °F 30.15 in Calm   1.0 mph 54% 0.00 in 0.0 W/m2
04:35 60.4 °F 43.7 °F 30.15 in Calm   1.0 mph 54% 0.00 in 0.0 W/m2
04:40 60.4 °F 43.7 °F 30.15 in Calm   1.0 mph 54% 0.00 in 0.0 W/m2
04:46 60.4 °F 43.7 °F 30.15 in Calm     54% 0.00 in 0.0 W/m2
04:53 60.4 °F 44.6 °F 30.15 in Calm   1.0 mph 56% 0.00 in 0.0 W/m2
04:56 60.4 °F 44.6 °F 30.16 in Calm     56% 0.00 in 0.0 W/m2
05:00 60.3 °F 44.4 °F 30.16 in Calm     56% 0.00 in 0.0 W/m2
05:01 60.3 °F 44.4 °F 30.16 in Calm     56% 0.00 in 0.0 W/m2
05:06 60.1 °F 44.4 °F 30.16 in Calm     56% 0.00 in 0.0 W/m2
05:11 60.1 °F 44.8 °F 30.16 in Calm   1.0 mph 57% 0.00 in 0.0 W/m2
05:13 59.9 °F 44.6 °F 30.17 in Calm     57% 0.00 in 0.0 W/m2
05:16 59.7 °F 44.4 °F 30.16 in Calm     57% 0.00 in 0.0 W/m2
05:21 59.5 °F 43.9 °F 30.17 in Calm   2.0 mph 56% 0.00 in 0.0 W/m2
05:26 59.5 °F 43.9 °F 30.17 in Calm     56% 0.00 in 0.0 W/m2
05:32 59.5 °F 44.2 °F 30.17 in Calm     57% 0.00 in 0.0 W/m2
05:37 59.4 °F 44.1 °F 30.17 in Calm   2.0 mph 57% 0.00 in 0.0 W/m2
05:42 59.4 °F 43.7 °F 30.18 in Calm   3.0 mph 56% 0.00 in 0.0 W/m2
05:47 59.4 °F 43.7 °F 30.18 in Calm   2.0 mph 56% 0.00 in 0.0 W/m2
05:52 59.4 °F 43.7 °F 30.18 in Calm     56% 0.00 in 0.0 W/m2
05:57 59.4 °F 43.2 °F 30.18 in Calm   2.0 mph 55% 0.00 in 0.0 W/m2
06:02 59.5 °F 43.9 °F 30.19 in Calm   1.0 mph 56% 0.00 in 0.0 W/m2
06:07 59.5 °F 43.9 °F 30.19 in Calm     56% 0.00 in 0.0 W/m2
06:13 59.4 °F 44.1 °F 30.19 in Calm     57% 0.00 in 0.0 W/m2
06:18 59.4 °F 44.1 °F 30.19 in Calm     57% 0.00 in 0.0 W/m2
06:23 59.2 °F 43.9 °F 30.20 in Calm     57% 0.00 in 7.0 W/m2
06:28 59.2 °F 43.9 °F 30.20 in Calm   1.0 mph 57% 0.00 in 9.0 W/m2
06:33 59.0 °F 43.7 °F 30.20 in Calm   1.0 mph 57% 0.00 in 11.0 W/m2
06:38 59.0 °F 43.7 °F 30.20 in Calm     57% 0.00 in 12.0 W/m2
06:43 59.0 °F 43.7 °F 30.21 in Calm   1.0 mph 57% 0.00 in 14.0 W/m2
06:53 59.2 °F 44.8 °F 30.21 in SE 0.9 mph 1.0 mph 59% 0.00 in 18.0 W/m2
06:59 59.2 °F 45.3 °F 30.21 in Calm     60% 0.00 in 19.0 W/m2
07:04 59.4 °F 44.6 °F 30.21 in Calm   1.0 mph 58% 0.00 in 21.0 W/m2
07:09 59.5 °F 45.1 °F 30.22 in Calm     59% 0.00 in 23.0 W/m2
07:14 59.5 °F 45.1 °F 30.22 in Calm     59% 0.00 in 25.0 W/m2
07:19 59.7 °F 46.2 °F 30.22 in Calm     61% 0.00 in 26.0 W/m2
07:24 60.1 °F 45.7 °F 30.22 in Calm     59% 0.00 in 26.0 W/m2
07:29 60.4 °F 45.7 °F 30.22 in Calm     58% 0.00 in 28.0 W/m2
07:34 61.0 °F 45.1 °F 30.22 in Calm   1.0 mph 56% 0.00 in 28.0 W/m2
07:40 61.3 °F 46.0 °F 30.22 in SE 0.9 mph 1.0 mph 57% 0.00 in 30.0 W/m2
07:45 61.9 °F 46.0 °F 30.22 in Calm     56% 0.00 in 54.0 W/m2
07:50 62.4 °F 45.5 °F 30.22 in Calm     54% 0.00 in 200.0 W/m2
07:55 63.1 °F 45.1 °F 30.22 in Calm     52% 0.00 in 290.0 W/m2
08:00 64.2 °F 45.7 °F 30.22 in Calm     51% 0.00 in 366.0 W/m2
08:05 65.7 °F 45.5 °F 30.22 in Calm     48% 0.00 in 387.0 W/m2
08:10 66.9 °F 46.6 °F 30.22 in Calm     48% 0.00 in 406.0 W/m2
08:15 68.0 °F 45.3 °F 30.22 in Calm     44% 0.00 in 429.0 W/m2
08:21 69.3 °F 44.6 °F 30.22 in Calm   1.0 mph 41% 0.00 in 450.0 W/m2
08:26 70.5 °F 45.0 °F 30.23 in Calm     40% 0.00 in 469.0 W/m2
08:31 71.6 °F 44.6 °F 30.22 in Calm     38% 0.00 in 487.0 W/m2
08:36 72.5 °F 44.1 °F 30.23 in Calm     36% 0.00 in 508.0 W/m2
08:41 73.2 °F 45.3 °F 30.23 in Calm     37% 0.00 in 527.0 W/m2
08:46 74.5 °F 44.2 °F 30.23 in Calm     34% 0.00 in 545.0 W/m2
08:51 75.2 °F 45.0 °F 30.23 in Calm     34% 0.00 in 566.0 W/m2
08:56 75.9 °F 44.8 °F 30.23 in Calm   1.0 mph 33% 0.00 in 585.0 W/m2
09:02 76.5 °F 44.4 °F 30.23 in Calm   1.0 mph 32% 0.00 in 603.0 W/m2
09:07 76.8 °F 44.8 °F 30.23 in Calm   1.0 mph 32% 0.00 in 621.0 W/m2
09:12 77.5 °F 42.8 °F 30.23 in Calm     29% 0.00 in 640.0 W/m2
09:17 78.3 °F 43.3 °F 30.23 in Calm   1.0 mph 29% 0.00 in 656.0 W/m2
09:22 78.6 °F 43.7 °F 30.23 in Calm   2.0 mph 29% 0.00 in 677.0 W/m2
09:27 79.0 °F 43.2 °F 30.23 in NW 0.9 mph 1.0 mph 28% 0.00 in 694.0 W/m2
09:32 79.3 °F 42.4 °F 30.22 in Calm   1.0 mph 27% 0.00 in 712.0 W/m2
09:37 79.7 °F 41.7 °F 30.22 in Calm   1.0 mph 26% 0.00 in 729.0 W/m2
09:43 80.6 °F 40.5 °F 30.22 in NE 4.0 mph 6.0 mph 24% 0.00 in 747.0 W/m2
09:48 81.3 °F 41.0 °F 30.22 in Calm   3.0 mph 24% 0.00 in 761.0 W/m2
09:53 82.2 °F 40.8 °F 30.22 in Calm   3.0 mph 23% 0.00 in 775.0 W/m2
09:58 82.9 °F 41.4 °F 30.22 in SE 4.0 mph 5.0 mph 23% 0.00 in 795.0 W/m2
10:03 83.1 °F 39.2 °F 30.22 in Calm   3.0 mph 21% 0.00 in 809.0 W/m2
10:08 83.5 °F 39.4 °F 30.22 in ESE 2.0 mph 3.0 mph 21% 0.00 in 819.0 W/m2
10:13 84.0 °F 39.9 °F 30.22 in South 2.9 mph 5.0 mph 21% 0.00 in 838.0 W/m2
10:18 84.2 °F 36.1 °F 30.22 in Calm   8.0 mph 18% 0.00 in 851.0 W/m2
10:23 84.4 °F 37.6 °F 30.22 in SSW 2.0 mph 4.0 mph 19% 0.00 in 867.0 W/m2
10:29 84.2 °F 37.4 °F 30.22 in West 4.0 mph 7.0 mph 19% 0.00 in 874.0 W/m2
10:34 83.7 °F 38.3 °F 30.22 in West 0.9 mph 3.0 mph 20% 0.00 in 893.0 W/m2
10:39 84.0 °F 38.7 °F 30.22 in ESE 2.9 mph 6.0 mph 20% 0.00 in 905.0 W/m2
10:44 84.6 °F 39.0 °F 30.22 in ESE 2.9 mph 7.0 mph 20% 0.00 in 918.0 W/m2
10:49 85.1 °F 38.1 °F 30.21 in SSW 2.9 mph 5.0 mph 19% 0.00 in 930.0 W/m2
10:54 84.9 °F 40.6 °F 30.21 in WSW 2.9 mph 3.0 mph 21% 0.00 in 940.0 W/m2
10:55 84.9 °F 39.4 °F 30.21 in West 2.0 mph 5.0 mph 20% 0.00 in 944.0 W/m2
10:59 84.9 °F 39.4 °F 30.21 in NNW 2.9 mph 4.0 mph 20% 0.00 in 951.0 W/m2
11:04 85.6 °F 37.2 °F 30.21 in NNW 2.9 mph 6.0 mph 18% 0.00 in 969.0 W/m2
11:09 86.2 °F 37.8 °F 30.21 in Calm   9.0 mph 18% 0.00 in 969.0 W/m2
11:11 86.4 °F 37.9 °F 30.21 in Calm   4.0 mph 18% 0.00 in 976.0 W/m2
11:14 86.5 °F 37.9 °F 30.21 in WNW 2.9 mph 4.0 mph 18% 0.00 in 984.0 W/m2
11:19 86.7 °F 36.7 °F 30.21 in NNE 4.9 mph 7.0 mph 17% 0.00 in 993.0 W/m2
11:21 86.7 °F 36.7 °F 30.21 in North 2.9 mph 7.0 mph 17% 0.00 in 993.0 W/m2
11:25 87.3 °F 37.2 °F 30.21 in NW 2.0 mph 6.0 mph 17% 0.00 in 1000.0 W/m2
11:31 87.4 °F 37.2 °F 30.21 in NW 4.0 mph 5.0 mph 17% 0.00 in 1011.0 W/m2
11:35 87.8 °F 36.0 °F 30.20 in ENE 0.9 mph 4.0 mph 16% 0.00 in 1021.0 W/m2
11:37 87.8 °F 37.6 °F 30.21 in SSW 2.9 mph 3.0 mph 17% 0.00 in 1028.0 W/m2
11:43 87.3 °F 35.6 °F 30.20 in SW 0.9 mph 8.0 mph 16% 0.00 in 1055.0 W/m2
11:50 87.1 °F 35.4 °F 30.20 in SSW 4.9 mph 7.0 mph 16% 0.00 in 1056.0 W/m2
11:55 86.9 °F 36.9 °F 30.20 in SSW 4.0 mph 8.0 mph 17% 0.00 in 1051.0 W/m2
12:01 86.5 °F 36.5 °F 30.20 in WSW 2.0 mph 7.0 mph 17% 0.00 in 1141.0 W/m2
12:06 86.5 °F 36.5 °F 30.20 in SE 4.9 mph 8.0 mph 17% 0.00 in 1199.0 W/m2
12:11 87.3 °F 37.2 °F 30.20 in East 2.9 mph 5.0 mph 17% 0.00 in 1248.0 W/m2
12:16 87.1 °F 37.0 °F 30.20 in SW 0.9 mph 3.0 mph 17% 0.00 in 234.0 W/m2
12:21 86.7 °F 36.7 °F 30.20 in Calm   4.0 mph 17% 0.00 in 1202.0 W/m2
12:23 86.9 °F 36.9 °F 30.20 in South 2.0 mph 2.0 mph 17% 0.00 in 1211.0 W/m2
12:31 88.0 °F 37.8 °F 30.19 in NNE 2.0 mph 9.0 mph 17% 0.00 in 1190.0 W/m2
12:36 88.5 °F 38.1 °F 30.19 in NNW 2.9 mph 7.0 mph 17% 0.00 in 1232.0 W/m2
12:41 89.2 °F 40.3 °F 30.19 in NNW 4.0 mph 8.0 mph 18% 0.00 in 237.0 W/m2
12:46 89.2 °F 37.2 °F 30.19 in NE 4.0 mph 11.0 mph 16% 0.00 in 1202.0 W/m2
12:47 89.1 °F 38.7 °F 30.19 in NE 4.9 mph 11.0 mph 17% 0.00 in 1202.0 W/m2
12:52 89.1 °F 37.0 °F 30.18 in North 6.9 mph 11.0 mph 16% 0.00 in 1172.0 W/m2
13:01 90.1 °F 36.3 °F 30.18 in West 6.0 mph 14.0 mph 15% 0.00 in 1121.0 W/m2
13:02 90.3 °F 34.7 °F 30.18 in WNW 2.0 mph 14.0 mph 14% 0.00 in 1109.0 W/m2
13:07 91.0 °F 33.4 °F 30.18 in West 4.0 mph 10.0 mph 13% 0.00 in 1113.0 W/m2
13:12 90.3 °F 32.9 °F 30.19 in North 4.0 mph 9.0 mph 13% 0.00 in 1104.0 W/m2
13:17 90.3 °F 32.9 °F 30.19 in North 4.0 mph 9.0 mph 13% 0.00 in 1104.0 W/m2
13:22 91.0 °F 33.4 °F 30.18 in WNW 0.9 mph 8.0 mph 13% 0.00 in 1099.0 W/m2
13:24 91.2 °F 31.5 °F 30.18 in WNW 4.9 mph 11.0 mph 12% 0.00 in 1097.0 W/m2
13:27 91.8 °F 29.8 °F 30.18 in North 0.9 mph 8.0 mph 11% 0.00 in 1095.0 W/m2
13:29 91.8 °F 29.8 °F 30.18 in West 2.0 mph 7.0 mph 11% 0.00 in 1093.0 W/m2
13:32 91.9 °F 30.0 °F 30.18 in WNW 2.0 mph 8.0 mph 11% 0.00 in 1102.0 W/m2
13:43 91.9 °F 32.0 °F 30.18 in NW 0.9 mph 3.0 mph 12% 0.00 in 1078.0 W/m2
13:48 91.6 °F 31.8 °F 30.18 in Calm   8.0 mph 12% 0.00 in 1069.0 W/m2
13:54 91.8 °F 32.0 °F 30.18 in SSW 4.9 mph 12.0 mph 12% 0.00 in 1065.0 W/m2
13:58 91.8 °F 29.8 °F 30.18 in WSW 6.9 mph 10.0 mph 11% 0.00 in 1063.0 W/m2
14:03 91.0 °F 31.5 °F 30.18 in SW 6.0 mph 14.0 mph 12% 0.00 in 1055.0 W/m2
14:06 91.0 °F 31.5 °F 30.18 in WSW 4.9 mph 10.0 mph 12% 0.00 in 1056.0 W/m2
14:08 91.0 °F 31.5 °F 30.18 in NNW 0.9 mph 8.0 mph 12% 0.00 in 1049.0 W/m2
14:13 91.0 °F 31.5 °F 30.17 in SW 2.9 mph 8.0 mph 12% 0.00 in 1058.0 W/m2
14:20 91.9 °F 32.0 °F 30.17 in West 0.9 mph 6.0 mph 12% 0.00 in 1069.0 W/m2
14:26 92.7 °F 30.6 °F 30.17 in WNW 4.9 mph 7.0 mph 11% 0.00 in 1028.0 W/m2
14:28 92.8 °F 30.6 °F 30.17 in WSW 0.9 mph 6.0 mph 11% 0.00 in 1034.0 W/m2
14:34 92.8 °F 30.6 °F 30.17 in WSW 8.9 mph 14.0 mph 11% 0.00 in 1025.0 W/m2
14:39 92.5 °F 32.5 °F 30.17 in WSW 4.0 mph 9.0 mph 12% 0.00 in 1007.0 W/m2
14:48 92.5 °F 30.4 °F 30.17 in WSW 4.0 mph 7.0 mph 11% 0.00 in 984.0 W/m2
14:49 92.7 °F 30.6 °F 30.17 in SW 4.0 mph 10.0 mph 11% 0.00 in 981.0 W/m2
14:54 92.1 °F 30.0 °F 30.17 in West 2.9 mph 8.0 mph 11% 0.00 in 970.0 W/m2
14:59 91.9 °F 30.0 °F 30.16 in SE 4.9 mph 7.0 mph 11% 0.00 in 956.0 W/m2
15:00 91.9 °F 30.0 °F 30.16 in Calm   9.0 mph 11% 0.00 in 951.0 W/m2
15:04 92.3 °F 30.2 °F 30.17 in West 2.0 mph 5.0 mph 11% 0.00 in 939.0 W/m2
15:05 92.5 °F 30.4 °F 30.16 in North 4.9 mph 7.0 mph 11% 0.00 in 932.0 W/m2
15:09 92.7 °F 28.2 °F 30.16 in NW 4.0 mph 5.0 mph 10% 0.00 in 925.0 W/m2
15:15 93.0 °F 28.4 °F 30.16 in Calm   9.0 mph 10% 0.00 in 918.0 W/m2
15:18 93.4 °F 26.1 °F 30.15 in Calm   9.0 mph 9% 0.00 in 912.0 W/m2
15:20 93.6 °F 26.2 °F 30.15 in NNW 4.0 mph 14.0 mph 9% 0.00 in 907.0 W/m2
15:25 93.7 °F 26.4 °F 30.15 in West 6.0 mph 8.0 mph 9% 0.00 in 891.0 W/m2
15:30 93.4 °F 28.8 °F 30.16 in WSW 8.9 mph 12.0 mph 10% 0.00 in 874.0 W/m2
15:35 93.4 °F 28.8 °F 30.16 in SW 4.0 mph 16.0 mph 10% 0.00 in 867.0 W/m2
15:40 92.7 °F 30.6 °F 30.16 in WNW 4.9 mph 12.0 mph 11% 0.00 in 849.0 W/m2
15:42 92.7 °F 30.6 °F 30.16 in West 2.9 mph 8.0 mph 11% 0.00 in 842.0 W/m2
15:45 92.7 °F 30.6 °F 30.15 in West 2.9 mph 9.0 mph 11% 0.00 in 835.0 W/m2
15:50 92.7 °F 28.2 °F 30.15 in NNW 0.9 mph 4.0 mph 10% 0.00 in 816.0 W/m2
15:55 92.8 °F 30.6 °F 30.15 in SW 2.9 mph 5.0 mph 11% 0.00 in 795.0 W/m2
16:01 92.7 °F 30.6 °F 30.14 in WSW 8.1 mph 8.1 mph 11% 0.00 in 779.0 W/m2
16:06 92.8 °F 30.6 °F 30.14 in NNW 2.0 mph 4.0 mph 11% 0.00 in 768.0 W/m2
16:11 93.6 °F 28.8 °F 30.14 in NNW 4.9 mph 7.0 mph 10% 0.00 in 63.0 W/m2
16:16 93.4 °F 28.8 °F 30.14 in WSW 2.0 mph 8.0 mph 10% 0.00 in 585.0 W/m2
16:21 92.5 °F 30.4 °F 30.14 in WSW 4.0 mph 14.0 mph 11% 0.00 in 733.0 W/m2
16:26 91.8 °F 27.5 °F 30.13 in WNW 2.9 mph 6.0 mph 10% 0.00 in 691.0 W/m2
16:31 91.8 °F 29.8 °F 30.14 in SSW 2.0 mph 12.0 mph 11% 0.00 in 684.0 W/m2
16:36 92.1 °F 30.0 °F 30.13 in SE 2.9 mph 7.0 mph 11% 0.00 in 664.0 W/m2
16:41 92.5 °F 28.0 °F 30.13 in Calm   1.0 mph 10% 0.00 in 606.0 W/m2
16:47 92.8 °F 32.7 °F 30.13 in Calm   13.0 mph 12% 0.00 in 652.0 W/m2
16:52 93.0 °F 30.7 °F 30.13 in NW 0.9 mph 7.0 mph 11% 0.00 in 635.0 W/m2
16:57 93.6 °F 33.3 °F 30.13 in Calm   3.0 mph 12% 0.00 in 615.0 W/m2
17:02 93.7 °F 31.3 °F 30.13 in Calm   1.0 mph 11% 0.00 in 594.0 W/m2
17:05 93.9 °F 31.5 °F 30.12 in SSW 2.9 mph 7.0 mph 11% 0.00 in 582.0 W/m2
17:07 93.6 °F 28.8 °F 30.12 in SSW 2.9 mph 8.0 mph 10% 0.00 in 577.0 W/m2
17:12 93.2 °F 30.9 °F 30.12 in West 2.0 mph 6.0 mph 11% 0.00 in 473.0 W/m2
17:17 92.7 °F 32.7 °F 30.12 in Calm   2.0 mph 12% 0.00 in 100.0 W/m2
17:22 91.9 °F 32.0 °F 30.12 in SW 0.9 mph 11.0 mph 12% 0.00 in 541.0 W/m2
17:27 91.0 °F 33.4 °F 30.12 in SW 2.9 mph 7.0 mph 13% 0.00 in 527.0 W/m2
17:32 91.0 °F 37.0 °F 30.12 in SW 2.9 mph 6.0 mph 15% 0.00 in 503.0 W/m2
17:37 91.0 °F 35.2 °F 30.12 in WSW 8.1 mph 8.1 mph 14% 0.00 in 457.0 W/m2
17:43 91.0 °F 35.2 °F 30.12 in WSW 4.9 mph 12.0 mph 14% 0.00 in 434.0 W/m2
17:48 91.0 °F 35.2 °F 30.12 in WSW 8.1 mph 11.0 mph 14% 0.00 in 415.0 W/m2
17:53 90.7 °F 34.9 °F 30.12 in West 4.9 mph 10.0 mph 14% 0.00 in 387.0 W/m2
17:58 90.7 °F 34.9 °F 30.12 in WSW 4.9 mph 9.0 mph 14% 0.00 in 364.0 W/m2
18:03 90.3 °F 34.7 °F 30.12 in WNW 2.0 mph 13.0 mph 14% 0.00 in 332.0 W/m2
18:08 89.8 °F 34.2 °F 30.12 in WSW 2.9 mph 14.0 mph 14% 0.00 in 309.0 W/m2
18:13 89.1 °F 35.4 °F 30.12 in WSW 10.1 mph 14.0 mph 15% 0.00 in 290.0 W/m2
18:18 88.9 °F 35.2 °F 30.12 in WSW 4.0 mph 13.0 mph 15% 0.00 in 269.0 W/m2
18:26 88.9 °F 35.2 °F 30.13 in WSW 10.1 mph 10.1 mph 15% 0.00 in 237.0 W/m2
18:35 88.5 °F 35.1 °F 30.13 in West 4.9 mph 9.0 mph 15% 0.00 in 199.0 W/m2
18:40 88.2 °F 34.7 °F 30.13 in WSW 6.9 mph 10.0 mph 15% 0.00 in 178.0 W/m2
18:46 87.6 °F 34.3 °F 30.13 in SW 8.1 mph 13.0 mph 15% 0.00 in 121.0 W/m2
18:51 87.1 °F 35.4 °F 30.13 in West 6.0 mph 8.0 mph 16% 0.00 in 32.0 W/m2
18:52 86.9 °F 35.2 °F 30.13 in WNW 4.0 mph 9.0 mph 16% 0.00 in 30.0 W/m2
18:58 86.4 °F 34.9 °F 30.14 in SW 2.0 mph 7.0 mph 16% 0.00 in 28.0 W/m2
19:05 85.6 °F 35.8 °F 30.14 in SW 4.9 mph 11.0 mph 17% 0.00 in 25.0 W/m2
19:10 85.3 °F 35.6 °F 30.14 in SSW 4.9 mph 10.0 mph 17% 0.00 in 21.0 W/m2
19:17 84.7 °F 36.5 °F 30.14 in WSW 0.9 mph 6.0 mph 18% 0.00 in 16.0 W/m2
19:23 84.4 °F 36.3 °F 30.15 in WSW 4.0 mph 8.0 mph 18% 0.00 in 12.0 W/m2
19:28 83.8 °F 37.2 °F 30.15 in SW 4.9 mph 8.0 mph 19% 0.00 in 11.0 W/m2
19:33 83.5 °F 38.1 °F 30.15 in SW 4.0 mph 12.0 mph 20% 0.00 in 7.0 W/m2
19:34 83.5 °F 38.1 °F 30.15 in South 8.9 mph 11.0 mph 20% 0.00 in 7.0 W/m2
19:45 82.6 °F 38.7 °F 30.16 in WSW 8.9 mph 9.0 mph 21% 0.00 in 0.0 W/m2
19:50 82.2 °F 39.6 °F 30.16 in SSW 6.9 mph 11.0 mph 22% 0.00 in 0.0 W/m2
19:55 81.7 °F 40.3 °F 30.17 in SSW 2.9 mph 9.0 mph 23% 0.00 in 0.0 W/m2
20:00 81.3 °F 39.9 °F 30.17 in SW 6.9 mph 10.0 mph 23% 0.00 in 0.0 W/m2
20:06 80.8 °F 40.6 °F 30.17 in SW 4.9 mph 7.0 mph 24% 0.00 in 0.0 W/m2
20:08 80.8 °F 40.6 °F 30.17 in West 2.9 mph 10.0 mph 24% 0.00 in 0.0 W/m2
20:13 80.2 °F 40.1 °F 30.17 in WSW 4.0 mph 9.0 mph 24% 0.00 in 0.0 W/m2
20:23 79.5 °F 40.6 °F 30.17 in WSW 4.9 mph 9.0 mph 25% 0.00 in 0.0 W/m2
20:28 79.2 °F 40.3 °F 30.17 in WSW 2.0 mph 8.0 mph 25% 0.00 in 0.0 W/m2
20:33 79.0 °F 40.1 °F 30.17 in WSW 8.9 mph 14.0 mph 25% 0.00 in 0.0 W/m2
20:38 78.6 °F 39.9 °F 30.18 in SSW 6.9 mph 9.0 mph 25% 0.00 in 0.0 W/m2
20:43 78.4 °F 40.6 °F 30.18 in SW 0.9 mph 6.0 mph 26% 0.00 in 0.0 W/m2
20:47 78.3 °F 40.6 °F 30.18 in SW 2.9 mph 8.0 mph 26% 0.00 in 0.0 W/m2
20:52 78.3 °F 40.6 °F 30.18 in Calm   6.0 mph 26% 0.00 in 0.0 W/m2
20:57 78.1 °F 40.5 °F 30.19 in SSE 2.9 mph 5.0 mph 26% 0.00 in 0.0 W/m2
21:04 77.5 °F 41.0 °F 30.19 in Calm   8.0 mph 27% 0.00 in 0.0 W/m2
21:10 77.4 °F 40.8 °F 30.19 in Calm   7.0 mph 27% 0.00 in 0.0 W/m2
21:16 77.2 °F 40.6 °F 30.19 in WSW 2.0 mph 5.0 mph 27% 0.00 in 0.0 W/m2
21:22 76.8 °F 40.3 °F 30.19 in SSW 2.9 mph 8.0 mph 27% 0.00 in 0.0 W/m2
21:28 76.5 °F 41.0 °F 30.19 in SSW 2.9 mph 4.0 mph 28% 0.00 in 0.0 W/m2
21:34 76.3 °F 40.8 °F 30.19 in SSW 2.9 mph 7.0 mph 28% 0.00 in 0.0 W/m2
21:40 75.9 °F 40.5 °F 30.19 in SSW 2.9 mph 7.0 mph 28% 0.00 in 0.0 W/m2
21:45 75.7 °F 41.2 °F 30.19 in SW 2.9 mph 5.0 mph 29% 0.00 in 0.0 W/m2
21:55 75.6 °F 41.0 °F 30.20 in SW 4.0 mph 9.0 mph 29% 0.00 in 0.0 W/m2
21:58 75.6 °F 41.0 °F 30.20 in WSW 2.0 mph 5.0 mph 29% 0.00 in 0.0 W/m2
22:00 75.4 °F 41.0 °F 30.20 in West 6.0 mph 7.0 mph 29% 0.00 in 0.0 W/m2
22:03 75.4 °F 41.7 °F 30.20 in Calm   12.0 mph 30% 0.00 in 0.0 W/m2
22:06 75.2 °F 41.7 °F 30.20 in SSW 0.9 mph 3.0 mph 30% 0.00 in 0.0 W/m2
22:08 75.0 °F 41.5 °F 30.20 in West 0.9 mph 6.0 mph 30% 0.00 in 0.0 W/m2
22:13 74.8 °F 41.4 °F 30.20 in SW 2.0 mph 4.0 mph 30% 0.00 in 0.0 W/m2
22:18 74.8 °F 41.4 °F 30.20 in Calm   4.0 mph 30% 0.00 in 0.0 W/m2
22:23 74.7 °F 41.2 °F 30.21 in Calm     30% 0.00 in 0.0 W/m2
22:28 74.5 °F 41.0 °F 30.21 in Calm     30% 0.00 in 0.0 W/m2
22:33 74.5 °F 41.0 °F 30.21 in Calm   2.0 mph 30% 0.00 in 0.0 W/m2
22:38 74.1 °F 40.6 °F 30.21 in Calm   1.0 mph 30% 0.00 in 0.0 W/m2
22:43 73.8 °F 40.5 °F 30.21 in Calm     30% 0.00 in 0.0 W/m2
22:47 73.6 °F 41.0 °F 30.21 in Calm   1.0 mph 31% 0.00 in 0.0 W/m2
22:48 73.6 °F 41.0 °F 30.21 in Calm   1.0 mph 31% 0.00 in 0.0 W/m2
22:53 73.2 °F 40.8 °F 30.21 in Calm   2.0 mph 31% 0.00 in 0.0 W/m2
22:58 72.9 °F 40.5 °F 30.22 in Calm   1.0 mph 31% 0.00 in 0.0 W/m2
23:03 72.7 °F 41.2 °F 30.22 in SW 0.9 mph 1.0 mph 32% 0.00 in 0.0 W/m2
23:08 72.3 °F 39.9 °F 30.22 in Calm     31% 0.00 in 0.0 W/m2
23:13 72.3 °F 40.8 °F 30.22 in Calm   2.0 mph 32% 0.00 in 0.0 W/m2
23:18 72.1 °F 41.4 °F 30.22 in Calm   1.0 mph 33% 0.00 in 0.0 W/m2
23:23 72.0 °F 41.4 °F 29.75 in Calm     33% 0.00 in 0.0 W/m2
23:28 71.8 °F 41.9 °F 30.22 in Calm     34% 0.00 in 0.0 W/m2
23:33 71.4 °F 40.8 °F 30.22 in SSW 6.0 mph 6.0 mph 33% 0.00 in 0.0 W/m2
23:39 71.4 °F 40.8 °F 30.22 in SE 4.0 mph 8.0 mph 33% 0.00 in 0.0 W/m2
23:44 71.8 °F 40.3 °F 30.22 in South 4.9 mph 7.0 mph 32% 0.00 in 0.0 W/m2
23:49 72.0 °F 40.5 °F 30.22 in SE 0.9 mph 3.0 mph 32% 0.00 in 0.0 W/m2
23:54 72.1 °F 40.6 °F 30.22 in SSE 2.0 mph 6.0 mph 32% 0.00 in 0.0 W/m2
23:59 72.1 °F 40.6 °F 30.22 in SSE 6.0 mph 6.0 mph 32% 0.00 in 0.0 W/m2
Olympia, Windhoek, Namibia
Compliments of Weather Underground - 3.5 mb